Tracking 22458 objects as of 4-Mar-2021
HD Live streaming from Space Station
objects crossing your sky now

COSMOS 1691 DEB

Track COSMOS 1691 DEB now!
10-day predictions


NORAD ID: 16268
Int'l Code: 1985-094M
Perigee: 1,387.4 km
Apogee: 1,508.1 km
Inclination: 82.7 °
Period: 114.7 minutes
Semi major axis: 7818 km
RCS: 0.0885 m2 (small)
Launch date: October 9, 1985
Source: Commonwealth of Independent States (former USSR) (CIS)
Launch site: PLESETSK MISSILE AND SPACE COMPLEX (PKMTR)

Note: This is SATELLITE DEBRIS
aabbcc
Your satellite tracking list
Your tracking list is empty




NASA's NSSDC Master Catalog

Two Line Element Set (TLE):
1 16268U 85094M   21062.47243395  .00000064  00000-0  32250-3 0  9992
2 16268  82.7130 317.1077 0077178 154.0909  18.6021 12.55735815614292
Source of the keplerian elements: AFSPC